Weather in Luhansk

Ukraine / Luhansk Region     48°34′26″N   39°18′27″E
temp.,
°C
wind,
m/s
gust,
m/s
humid.,
%
clouds,
%
prec.,
mm/h
press.,
hPa
HPBL,
m
17 september, fri
fri1700:00+12e11500 0.0 101810
03:00+11e11550 0.0 101910
06:00+10e115736 0.0 101810
09:00+15e21415 0.0 1018324
12:00+21sse122957 0.0 10171718
15:00+22sw12255 0.0 10152070
18:00+20sse223056 0.0 101514
21:00+16s223577 0.0 101512
18 september, sat
sat1800:00+15sw223796 0.0 101512
03:00+14ssw2240100 0.0 101517
06:00+13s226394 0.0 101542
09:00+18s335149 0.0 1015425
12:00+23sse453224 0.0 10141982
15:00+24sse442542 0.0 10142371
18:00+21se353277 0.0 101369
21:00+18ese494194 0.0 1014151
19 september, sun
sun1900:00+17ese41050100 0.0 1014307
03:00+16ese4104884 0.0 1013259
06:00+17se51155100 0.0 1012370
09:00+17sse41060100 0.0 1013552
12:00+16se4976100 1.7 1013560
15:00+16sse5983100 2.3 1013480
18:00+15sse41080100 1.1 1012442
21:00+16se51183100 1.5 1012391
20 september, mon
mon2000:00+16se51082100 0.3 1011353
03:00+14sse379413 1.6 1011178
06:00+15s479510 0.1 1011201
09:00+20sw576099 0.5 1011521
12:00+24wsw4834100 0.0 10112127
15:00+25sw573186 0.0 10112456
18:00+22ssw46375 0.0 1011120
21:00+18ssw3651100 0.0 1012105
21 september, tue
tue2100:00+17ssw387499 0.3 1012214
03:00+17ssw4878100 0.3 1012321
06:00+16s3791100 1.8 1011394
09:00+16ssw3792100 5.6 1011463
12:00+14wnw6884100 1.0 1013506
15:00+17nw5664100 1.0 1014953
18:00+14nnw236491 0.0 101572
21:00+13ssw2268100 0.0 101516